Date,TemperatureHighF,TemperatureAvgF,TemperatureLowF,DewpointHighF,DewpointAvgF,DewpointLowF,HumidityHigh,HumidityAvg,HumidityLow,PressureMaxIn,PressureMinIn,WindSpeedMaxMPH,WindSpeedAvgMPH,GustSpeedMaxMPH,PrecipitationSumIn
2013-1-1,64.2,56.3,46.4,63.4,54.9,45.9,100,95,88,30.06,29.84,21,3,22,1.23
2013-1-2,46.4,42.2,39.2,45.9,40.1,34.8,100,92,82,30.21,30.05,18,5,18,0.04
2013-1-3,51.9,41.1,35.5,34.9,32.0,27.7,84,71,47,30.35,30.18,18,4,20,0.00
2013-1-4,56.5,43.5,34.0,36.0,30.7,25.5,81,63,31,30.42,30.28,13,3,16,0.00
2013-1-5,53.5,46.0,41.6,43.8,37.8,32.9,95,74,51,30.32,30.17,12,2,12,0.11
2013-1-6,52.2,45.5,37.5,48.3,43.6,35.4,98,93,79,30.25,30.14,19,4,19,0.90
2013-1-7,60.1,46.8,34.7,46.2,39.2,33.5,96,78,44,30.27,30.10,13,1,13,0.01
2013-1-8,62.3,55.7,48.0,62.0,51.9,40.2,99,87,71,30.14,29.99,15,2,15,1.73
2013-1-9,68.4,64.2,60.2,68.1,63.9,59.9,99,99,99,30.11,30.01,14,2,16,1.24
2013-1-10,69.1,65.6,62.4,68.8,65.3,62.1,99,99,96,30.09,29.90,23,3,24,1.65
2013-1-11,70.1,66.2,62.4,69.8,65.9,62.1,100,99,99,30.03,29.92,12,1,12,0.11
2013-1-12,77.0,71.2,68.3,71.6,68.3,63.6,99,91,64,29.97,29.81,22,4,22,0.01
2013-1-13,75.6,61.5,44.9,70.1,58.9,44.4,99,92,74,30.06,29.73,40,7,43,1.25
2013-1-14,45.2,41.1,35.8,44.9,40.7,34.9,99,98,97,30.12,30.01,23,6,24,0.67
2013-1-15,42.3,40.1,36.2,42.0,39.8,35.5,99,99,98,30.04,29.92,16,4,16,0.69
2013-1-16,36.9,35.9,35.0,36.1,35.0,32.9,100,96,91,30.12,29.97,19,5,19,0.11
2013-1-17,53.2,41.4,34.3,38.7,34.7,30.2,97,80,46,30.39,30.11,23,3,23,0.02
2013-1-18,59.2,43.4,33.7,37.2,33.3,24.8,95,73,31,30.48,30.33,12,2,12,0.00
2013-1-19,64.2,45.8,31.0,46.5,39.3,29.7,98,81,51,30.34,30.17,15,0,15,0.01
2013-1-20,67.8,48.6,33.7,48.3,38.6,32.7,99,74,29,30.21,30.07,11,1,11,0.00
2013-1-21,66.9,50.6,35.8,48.6,41.8,34.8,98,75,42,30.17,30.08,14,2,15,0.00
2013-1-22,65.0,49.1,40.5,44.9,39.6,33.8,93,72,43,30.30,30.16,11,1,11,0.00
2013-1-23,71.3,53.8,36.9,52.2,44.2,35.9,98,74,34,30.33,30.21,15,1,15,0.00
2013-1-24,71.8,58.8,43.2,58.7,52.2,41.8,98,80,61,30.26,30.14,14,1,14,0.00
2013-1-25,75.4,61.9,49.2,59.0,54.7,48.1,99,79,50,30.18,30.05,19,2,21,0.00
2013-1-26,74.9,60.0,50.8,64.5,55.9,49.9,99,88,57,30.18,30.09,13,0,13,0.01
2013-1-27,74.6,61.1,48.0,61.6,55.5,47.2,99,84,53,30.19,30.10,15,2,18,0.01
2013-1-28,74.4,64.8,56.2,64.3,61.0,54.6,98,88,68,30.17,30.03,12,1,12,0.00
2013-1-29,79.4,71.5,65.0,68.9,66.1,63.8,98,84,62,30.04,29.67,30,7,31,0.00
2013-1-30,73.7,55.9,37.6,68.2,45.3,30.2,96,70,39,30.13,29.60,29,7,33,0.75
2013-1-31,59.9,46.0,31.6,40.4,31.5,22.2,97,63,24,30.28,30.13,11,1,14,0.01
2013-2-1,64.8,48.3,37.8,42.5,37.4,31.7,95,71,31,30.35,30.24,16,1,16,0.00
2013-2-2,70.1,52.7,37.3,50.6,43.7,35.5,95,74,44,30.26,30.11,19,2,19,0.00
2013-2-3,69.1,53.5,40.6,51.1,38.7,23.0,98,65,18,30.23,30.05,16,2,16,0.00
2013-2-4,59.2,50.3,39.8,52.7,45.1,36.4,96,83,65,30.05,29.88,6,0,7,0.07
2013-2-5,72.5,59.8,51.4,61.8,56.3,50.3,99,89,63,29.97,29.87,7,0,9,0.01
2013-2-6,69.9,57.5,49.1,62.0,55.4,48.3,99,93,69,30.05,29.91,16,1,16,0.25
2013-2-7,70.3,59.8,52.5,59.5,56.8,51.1,99,90,65,29.92,29.78,18,2,20,0.87
2013-2-8,67.1,57.1,51.3,61.2,53.3,48.0,99,88,71,30.12,29.91,19,3,19,0.01
2013-2-9,65.3,56.3,46.8,57.8,50.7,42.8,93,82,67,30.17,29.96,17,2,17,0.00
2013-2-10,76.8,66.9,60.4,70.2,63.6,56.9,98,89,71,29.97,29.79,28,5,28,0.52
2013-2-11,62.9,56.2,52.8,62.6,55.9,52.1,99,99,98,30.11,29.89,14,3,28,1.91
2013-2-12,64.7,57.3,52.8,64.4,57.0,52.5,100,99,97,29.98,29.67,15,2,16,0.30
2013-2-13,57.2,49.8,39.6,52.5,44.6,38.0,99,83,59,30.03,29.82,17,4,17,0.06
2013-2-14,62.3,46.9,35.6,44.8,39.4,34.3,98,78,42,30.11,30.00,9,1,9,0.00
2013-2-15,66.8,51.3,35.6,49.3,39.6,34.5,98,69,34,30.14,30.03,18,3,20,0.01
2013-2-16,53.1,45.5,33.4,41.2,30.1,18.8,89,58,28,30.27,30.12,25,5,25,0.00
2013-2-17,63.9,46.2,31.2,40.4,33.5,26.7,92,65,35,30.29,30.13,15,2,15,0.00
2013-2-18,66.9,55.1,39.8,61.8,50.2,36.8,97,84,62,30.16,29.88,21,3,21,1.16
2013-2-19,66.6,57.8,48.3,60.6,43.7,29.1,99,64,27,30.19,29.89,21,6,21,0.10
2013-2-20,63.2,51.8,41.3,41.9,35.1,28.0,83,55,28,30.19,29.96,13,2,18,0.00
2013-2-21,74.4,63.4,51.7,71.1,56.4,38.1,99,78,59,29.95,29.67,29,6,29,0.20
2013-2-22,68.6,63.6,59.5,64.1,56.4,51.5,98,78,61,29.95,29.79,16,2,16,0.06
2013-2-23,67.1,58.8,51.9,55.4,52.7,47.0,93,81,64,29.91,29.81,14,3,14,0.00
2013-2-24,74.2,58.1,44.1,60.5,50.9,42.0,96,79,47,29.93,29.67,26,2,26,0.58
2013-2-25,67.8,63.8,57.5,66.3,61.2,37.8,99,92,49,29.68,29.36,26,3,30,0.71
2013-2-26,59.8,51.4,43.9,43.3,39.4,35.0,93,65,48,29.87,29.52,27,6,30,0.00
2013-2-27,70.4,55.1,40.5,49.3,41.7,37.0,98,66,31,30.00,29.87,21,3,22,0.01
2013-2-28,53.8,47.0,40.2,39.7,35.1,29.8,87,65,40,30.12,30.00,12,2,16,0.00
2013-3-1,59.2,46.8,35.5,39.5,34.5,28.2,95,66,34,30.12,30.02,22,3,22,0.00
2013-3-2,45.2,37.9,29.5,35.2,29.5,25.8,94,73,50,30.21,30.11,19,3,19,0.00
2013-3-3,56.9,40.3,25.3,36.5,29.3,23.6,94,69,31,30.25,30.06,12,1,13,0.00
2013-3-4,70.9,55.9,34.4,57.2,47.1,32.5,97,74,50,30.06,29.85,32,6,32,0.00
2013-3-5,73.0,63.5,51.0,61.5,50.5,30.4,88,65,32,30.17,29.83,25,5,25,0.00
2013-3-6,62.1,49.4,35.3,32.2,27.8,21.3,80,46,24,30.29,30.16,18,4,18,0.00
2013-3-7,66.3,47.9,31.2,40.8,33.9,28.7,93,63,28,30.31,30.16,10,1,10,0.00
2013-3-8,71.8,53.2,34.9,46.3,39.6,33.6,97,66,28,30.24,30.07,8,0,8,0.00
2013-3-9,69.8,59.6,47.4,58.4,52.8,44.4,92,79,65,30.09,29.87,19,2,19,0.00
2013-3-10,79.0,65.3,54.2,64.2,59.2,52.5,96,82,51,29.89,29.75,37,6,38,0.70
2013-3-11,58.1,49.2,42.6,52.7,42.2,35.9,97,79,45,29.99,29.85,21,4,21,1.50
2013-3-12,67.6,50.5,35.2,42.3,37.2,33.1,96,66,29,30.18,29.99,17,2,17,0.01
2013-3-13,66.0,51.9,38.8,40.0,31.5,20.5,92,52,18,30.35,30.17,24,4,24,0.00
2013-3-14,69.1,51.4,35.2,42.7,34.1,26.8,91,57,25,30.39,30.23,12,1,12,0.00
2013-3-15,76.0,58.2,39.5,51.6,43.6,37.7,96,64,28,30.25,30.03,23,2,23,0.00
2013-3-16,76.3,61.3,44.5,57.5,50.9,43.0,97,72,42,30.06,29.86,18,2,18,0.00
2013-3-17,78.5,65.6,53.1,64.9,58.0,50.6,97,79,47,29.89,29.72,19,3,21,0.02
2013-3-18,83.4,73.3,65.3,67.2,64.5,58.5,92,75,51,29.87,29.68,22,3,22,0.00
2013-3-19,77.2,63.2,50.4,60.0,47.6,39.6,84,60,34,29.98,29.86,19,3,19,0.00
2013-3-20,70.4,58.4,47.1,47.0,37.0,23.6,85,48,20,30.13,29.95,26,4,26,0.03
2013-3-21,66.9,54.7,43.9,46.7,36.4,27.3,76,52,26,30.00,29.78,16,1,17,0.00
2013-3-22,76.5,60.9,53.8,66.0,55.1,45.4,94,81,69,29.83,29.67,8,0,12,0.02
2013-3-23,70.3,67.2,63.2,67.0,65.6,62.0,97,95,86,29.74,29.50,5,0,20,0.08
2013-3-24,64.0,54.4,44.2,60.2,40.0,29.5,97,61,30,30.01,29.55,17,4,23,0.00
2013-3-25,58.0,46.4,34.4,31.7,25.7,18.1,82,48,24,30.24,29.99,20,4,22,0.00
2013-3-26,54.2,43.3,30.7,31.8,26.0,20.5,84,53,29,30.36,30.22,19,3,19,0.00
2013-3-27,64.3,46.0,29.1,38.1,30.5,26.0,92,60,25,30.39,30.20,11,0,11,0.00
2013-3-28,71.8,52.6,34.1,45.7,37.8,32.6,96,64,27,30.30,30.16,10,0,11,0.00
2013-3-29,75.6,58.8,40.6,51.8,46.1,39.3,97,67,35,30.25,30.10,16,1,16,0.00
2013-3-30,76.0,62.2,48.8,59.4,53.4,47.2,96,75,46,30.12,29.94,17,1,18,0.00
2013-3-31,74.4,62.6,54.4,64.6,59.1,52.5,98,89,68,29.97,29.86,31,1,33,0.01
2013-4-1,77.9,63.3,51.4,61.7,55.0,50.9,99,78,41,30.05,29.88,12,1,12,0.01
2013-4-2,77.7,61.9,47.1,60.1,54.0,46.3,98,78,44,30.04,29.89,11,0,11,0.00
2013-4-3,63.7,57.6,50.8,61.8,55.6,48.3,98,93,85,29.97,29.71,19,3,20,2.04
2013-4-4,53.9,50.7,47.9,50.0,47.8,44.5,99,90,80,30.00,29.87,13,2,13,0.01
2013-4-5,68.1,53.9,46.4,51.1,46.3,42.5,93,77,48,30.14,30.00,17,3,18,0.00
2013-4-6,73.9,58.3,41.9,53.5,48.5,40.8,98,74,42,30.08,29.96,15,1,15,0.00
2013-4-7,77.0,65.3,55.6,60.7,57.3,53.0,94,77,50,30.01,29.89,13,1,13,0.00
2013-4-8,82.2,68.7,55.7,64.5,61.0,54.3,98,79,50,29.93,29.84,17,1,21,0.00
2013-4-9,85.1,75.4,67.3,71.4,68.6,64.1,96,81,59,29.91,29.82,24,1,24,0.00
2013-4-10,83.4,76.6,72.5,71.4,69.0,67.7,89,78,64,29.88,29.71,21,2,21,0.00
2013-4-11,75.3,63.0,50.5,71.2,59.5,48.6,97,89,73,29.80,29.61,21,2,21,0.57
2013-4-12,75.3,57.7,42.5,52.8,46.3,38.5,98,72,30,29.94,29.79,16,1,16,0.01
2013-4-13,79.8,62.8,47.1,56.0,48.6,41.6,95,65,29,29.98,29.81,15,0,15,0.00
2013-4-14,73.7,63.2,55.6,72.6,62.1,53.6,99,96,73,29.81,29.67,18,1,18,3.77
2013-4-15,80.3,70.8,61.8,79.4,69.9,60.7,97,97,97,29.89,29.75,9,0,10,0.02
2013-4-16,84.9,76.8,72.7,84.0,75.9,71.8,97,97,97,30.00,29.87,12,0,12,0.00
2013-4-17,84.7,76.9,72.5,83.6,76.0,71.6,97,97,97,30.00,29.84,18,0,18,0.00
2013-4-18,84.1,75.3,56.3,83.2,74.5,55.5,97,97,97,29.84,29.68,26,3,27,0.18
2013-4-19,60.4,52.3,44.5,59.5,51.5,43.7,97,97,97,30.13,29.84,20,3,22,0.06
2013-4-20,70.6,54.4,38.5,69.5,53.5,37.7,97,97,97,30.21,30.05,13,1,15,0.01
2013-4-21,74.7,58.9,43.3,73.8,58.1,42.5,97,97,97,30.17,30.03,12,0,12,0.00
2013-4-22,79.8,63.9,47.4,78.9,63.0,46.6,97,97,97,30.08,29.93,10,0,11,0.00
2013-4-23,84.9,72.5,62.6,84.0,71.6,61.7,97,97,97,30.00,29.87,13,1,15,0.00
2013-4-24,69.9,62.9,54.7,69.0,62.0,53.9,97,97,97,30.14,29.91,22,3,22,0.42
2013-4-25,70.9,59.5,51.0,70.0,58.6,50.2,97,97,97,30.26,30.14,14,2,16,0.00
2013-4-26,79.8,66.0,51.4,78.9,65.1,50.6,97,97,97,30.20,30.12,12,0,12,0.00
2013-4-27,83.0,72.7,64.0,82.1,71.8,63.1,97,97,97,30.12,29.95,16,1,16,0.00
2013-4-28,74.6,69.9,62.7,73.7,69.0,61.8,97,97,97,29.99,29.86,14,0,14,0.00
2013-4-29,84.1,69.3,55.7,83.2,68.4,54.9,97,97,97,29.91,29.80,6,0,6,0.01
2013-4-30,75.1,69.5,60.5,74.2,68.6,59.7,97,97,97,29.84,29.79,7,0,7,0.00
2013-5-1,76.0,68.5,64.5,73.8,4.2,0.0,97,6,97,29.84,29.75,21,0,23,1.30
2013-5-2,76.7,67.8,63.1,0.0,0.0,0.0,0,0,100,29.89,29.80,13,0,13,0.36
2013-5-3,66.0,54.2,42.8,0.0,0.0,0.0,0,0,100,29.99,29.84,17,2,18,0.10
2013-5-4,71.5,55.5,38.0,0.0,0.0,0.0,0,0,100,29.98,29.80,19,1,19,0.01
2013-5-5,63.9,54.5,46.4,0.0,0.0,0.0,0,0,100,29.99,29.83,21,2,21,0.00
2013-5-6,74.6,58.9,43.1,0.0,0.0,0.0,0,0,100,29.99,29.87,17,2,20,0.00
2013-5-7,80.3,65.7,51.1,0.0,0.0,0.0,0,0,100,30.00,29.91,15,0,15,0.00
2013-5-8,83.8,68.6,53.3,0.0,0.0,0.0,0,0,100,30.04,29.95,12,0,12,0.00
2013-5-9,83.0,70.9,59.0,0.0,0.0,0.0,0,0,100,30.03,29.91,13,0,13,0.00
2013-5-10,71.6,67.6,62.6,0.0,0.0,0.0,0,0,100,29.98,29.74,22,1,24,2.40
2013-5-11,78.3,68.7,61.3,0.0,0.0,0.0,0,0,100,30.00,29.83,12,0,12,0.23
2013-5-12,79.4,67.1,55.1,0.0,0.0,0.0,0,0,100,30.11,29.99,17,2,17,0.00
2013-5-13,80.5,64.0,47.9,0.0,0.0,0.0,0,0,100,30.23,30.11,10,0,10,0.00
2013-5-14,84.0,68.5,52.6,0.0,0.0,0.0,0,0,100,30.21,30.07,13,0,13,0.00
2013-5-15,83.4,69.0,55.4,0.0,0.0,0.0,0,0,100,30.12,29.94,13,0,15,0.00
2013-5-16,83.8,71.8,59.8,0.0,0.0,0.0,0,0,100,29.97,29.82,15,1,16,0.00
2013-5-17,87.4,76.5,67.1,0.0,0.0,0.0,0,0,100,29.94,29.86,11,1,14,0.00
2013-5-18,88.0,78.8,69.8,0.0,0.0,0.0,0,0,100,29.99,29.90,15,1,15,0.00
2013-5-19,88.4,78.0,68.9,0.0,0.0,0.0,0,0,100,29.93,29.85,18,2,19,0.00
2013-5-20,90.7,80.9,74.6,0.0,0.0,0.0,0,0,100,29.93,29.80,18,1,18,0.00
2013-5-21,89.5,80.6,73.7,0.0,0.0,0.0,0,0,100,29.88,29.72,17,2,18,0.00
2013-5-22,81.1,72.5,66.8,0.0,0.0,0.0,0,0,100,29.93,29.78,21,0,23,4.13
2013-5-23,88.6,75.3,65.8,0.0,0.0,0.0,0,0,100,29.99,29.89,14,0,15,0.01
2013-5-24,88.8,76.2,64.5,0.0,0.0,0.0,0,0,100,30.08,29.97,13,0,13,0.00
2013-5-25,86.3,75.3,65.5,0.0,0.0,0.0,0,0,100,30.16,30.05,10,0,10,0.00
2013-5-26,84.7,74.4,65.8,0.0,0.0,0.0,0,0,100,30.12,30.02,7,0,7,0.00
2013-5-27,88.2,75.4,64.0,0.0,0.0,0.0,0,0,100,30.06,29.92,14,0,14,0.82
2013-5-28,84.9,75.5,66.6,0.0,0.0,0.0,0,0,100,29.99,29.90,12,0,12,0.02
2013-5-29,84.7,75.6,67.3,0.0,0.0,0.0,0,0,100,29.93,29.85,15,0,21,0.01
2013-5-30,87.4,78.0,72.5,0.0,0.0,0.0,0,0,100,29.92,29.84,22,0,25,0.59
2013-5-31,87.2,79.4,73.7,0.0,0.0,0.0,0,0,100,29.93,29.85,16,0,16,0.04
2013-6-1,89.9,80.8,73.0,0.0,0.0,0.0,0,0,100,29.90,29.81,14,1,14,0.01
2013-6-2,85.1,76.0,68.1,0.0,0.0,0.0,0,0,100,29.97,29.80,12,1,13,0.40
2013-6-3,88.2,79.2,71.3,0.0,0.0,0.0,0,0,100,29.87,29.77,11,1,13,0.00
2013-6-4,92.7,80.7,71.1,0.0,0.0,0.0,0,0,100,29.87,29.77,7,0,7,0.00
2013-6-5,91.4,80.8,72.1,0.0,0.0,0.0,0,0,100,29.85,29.71,7,0,7,0.00
2013-6-6,85.7,78.5,71.3,0.0,0.0,0.0,0,0,100,29.80,29.67,20,1,20,0.07
2013-6-7,85.5,76.2,70.1,0.0,0.0,0.0,0,0,100,29.83,29.73,12,0,14,0.04
2013-6-8,89.3,76.2,68.1,0.0,0.0,0.0,0,0,100,29.90,29.81,26,0,26,0.02
2013-6-9,89.7,76.0,68.9,0.0,0.0,0.0,0,0,100,29.90,29.80,25,0,25,0.92
2013-6-10,89.7,78.8,69.6,0.0,0.0,0.0,0,0,100,29.95,29.88,6,0,11,0.00
2013-6-11,92.1,81.8,72.5,0.0,0.0,0.0,0,0,100,30.02,29.93,5,0,6,0.00
2013-6-12,92.9,82.0,72.8,0.0,0.0,0.0,0,0,100,30.02,29.93,10,0,10,0.00
2013-6-13,91.6,81.4,71.5,0.0,0.0,0.0,0,0,100,29.99,29.84,13,0,13,0.00
2013-6-14,93.4,82.8,75.1,0.0,0.0,0.0,0,0,100,29.88,29.80,14,1,15,0.00
2013-6-15,92.7,80.3,68.6,0.0,0.0,0.0,0,0,100,29.94,29.85,10,0,10,0.00
2013-6-16,92.5,82.2,74.0,0.0,0.0,0.0,0,0,100,29.98,29.88,14,0,14,0.00
2013-6-17,92.8,82.5,72.3,74.7,35.2,0.0,79,31,49,29.96,29.84,15,1,16,0.16
2013-6-18,91.8,81.0,70.7,77.4,73.3,67.6,96,79,49,30.01,29.87,22,1,22,0.75
2013-6-19,85.4,75.3,70.1,77.0,72.8,69.1,98,92,73,30.06,29.94,8,0,8,0.52
2013-6-20,90.5,78.6,70.5,79.4,73.2,69.5,99,85,56,30.10,30.01,16,0,16,0.11
2013-6-21,93.3,80.8,69.6,79.2,73.8,68.7,98,81,51,30.12,30.03,8,0,8,0.01
2013-6-22,92.4,80.7,71.3,78.2,74.1,70.3,98,82,54,30.09,29.99,12,0,12,0.00
2013-6-23,93.1,79.5,71.0,77.8,73.1,69.7,97,83,49,30.07,29.98,18,0,18,0.03
2013-6-24,90.5,80.5,71.9,78.9,74.6,71.0,98,83,61,30.12,30.03,17,0,20,0.00
2013-6-25,92.5,81.7,71.7,78.6,74.4,69.4,98,81,48,30.09,29.98,10,0,11,0.00
2013-6-26,94.0,81.6,69.7,78.1,73.7,69.1,98,79,48,30.05,29.94,12,0,12,0.00
2013-6-27,93.8,82.4,71.5,79.1,75.4,70.6,98,81,55,30.02,29.91,14,0,14,0.00
2013-6-28,93.0,83.5,75.5,79.6,76.1,73.8,98,80,56,29.95,29.76,14,1,16,0.00
2013-6-29,88.2,79.9,73.3,80.4,76.4,71.5,97,89,74,29.81,29.70,22,1,22,0.29
2013-6-30,90.4,80.0,70.7,75.4,69.3,61.5,99,73,39,29.81,29.72,9,0,13,0.00
2013-7-1,87.2,76.4,65.0,71.0,67.6,64.1,97,76,50,29.93,29.81,14,0,14,0.00
2013-7-2,89.3,76.8,65.0,71.6,67.8,64.1,97,76,45,30.00,29.91,10,0,10,0.00
2013-7-3,90.0,74.9,65.7,74.8,68.4,64.2,95,82,47,30.03,29.94,14,0,15,0.00
2013-7-4,89.5,78.4,67.9,75.9,71.3,67.0,98,81,53,29.97,29.91,11,1,12,0.00
2013-7-5,88.0,77.7,70.7,79.1,73.0,68.0,96,86,69,30.00,29.93,16,0,19,0.00
2013-7-6,88.6,78.0,69.6,77.0,73.0,68.6,98,86,62,30.00,29.93,8,0,11,0.00
2013-7-7,89.7,78.8,73.7,79.0,74.9,72.6,97,89,65,30.08,29.97,18,1,18,0.20
2013-7-8,91.3,79.3,71.6,78.8,74.3,71.0,99,86,55,30.15,30.05,13,0,15,0.01
2013-7-9,92.8,80.7,70.9,77.6,74.1,70.3,99,83,55,30.18,30.06,12,0,12,0.60
2013-7-10,92.8,82.7,74.2,78.6,75.7,72.2,99,81,53,30.10,29.96,10,0,11,0.00
2013-7-11,90.7,79.8,72.4,79.3,75.5,71.0,97,87,66,30.00,29.92,32,1,32,1.02